TimeEDT,TemperatureF,Dew PointF,Humidity,Sea Level PressureIn,VisibilityMPH,Wind Direction,Wind SpeedMPH,Gust SpeedMPH,PrecipitationIn,Events,Conditions,WindDirDegrees,DateUTC
12:15 AM,63.3,60.8,91,29.96,7.0,SE,10.4,-,N/A,,Mostly Cloudy,130,2013-05-07 04:15:00
12:35 AM,63.0,60.4,91,29.95,10.0,SE,17.3,21.9,N/A,,Mostly Cloudy,130,2013-05-07 04:35:00
12:55 AM,62.8,59.2,88,29.95,10.0,SE,17.3,23.0,N/A,,Mostly Cloudy,130,2013-05-07 04:55:00
1:15 AM,62.6,59.5,90,29.94,10.0,SE,15.0,-,N/A,,Mostly Cloudy,130,2013-05-07 05:15:00
1:35 AM,64.4,58.1,80,29.93,10.0,ESE,12.7,20.7,N/A,,Overcast,120,2013-05-07 05:35:00
1:55 AM,64.6,60.1,85,29.91,10.0,ESE,10.4,-,N/A,,Mostly Cloudy,120,2013-05-07 05:55:00
2:15 AM,65.8,61.7,86,29.91,10.0,SE,12.7,-,0.01,,Overcast,140,2013-05-07 06:15:00
2:35 AM,65.3,61.2,86,29.90,10.0,SE,11.5,17.3,0.01,,Mostly Cloudy,130,2013-05-07 06:35:00
2:55 AM,66.0,61.5,85,29.91,10.0,SE,13.8,19.6,0.01,,Overcast,140,2013-05-07 06:55:00
3:15 AM,65.7,61.9,88,29.91,10.0,SSE,12.7,19.6,N/A,,Overcast,150,2013-05-07 07:15:00
3:35 AM,64.9,61.7,89,29.91,7.0,SSW,6.9,11.5,N/A,Rain,Light Rain,210,2013-05-07 07:35:00
3:55 AM,64.0,61.9,93,29.91,7.0,South,5.8,-,N/A,,Overcast,190,2013-05-07 07:55:00
4:15 AM,64.4,61.7,91,29.90,10.0,South,6.9,-,N/A,,Overcast,190,2013-05-07 08:15:00
4:35 AM,64.6,61.3,89,29.90,10.0,SSE,6.9,-,N/A,,Mostly Cloudy,160,2013-05-07 08:35:00
4:55 AM,64.4,61.2,89,29.90,10.0,SE,10.4,-,N/A,,Overcast,140,2013-05-07 08:55:00
5:15 AM,63.9,60.8,90,29.91,10.0,SE,10.4,-,N/A,,Overcast,140,2013-05-07 09:15:00
5:35 AM,64.8,60.1,85,29.89,10.0,SSE,9.2,17.3,N/A,,Overcast,150,2013-05-07 09:35:00
5:55 AM,64.6,58.8,82,29.90,10.0,SE,9.2,-,N/A,,Overcast,140,2013-05-07 09:55:00
6:15 AM,64.4,59.4,84,29.91,10.0,SE,11.5,-,N/A,,Overcast,130,2013-05-07 10:15:00
6:35 AM,64.6,57.7,78,29.91,10.0,SE,9.2,-,N/A,,Overcast,140,2013-05-07 10:35:00
6:55 AM,63.5,58.5,84,29.91,10.0,SE,8.1,-,N/A,,Mostly Cloudy,140,2013-05-07 10:55:00
7:15 AM,63.3,59.0,86,29.92,10.0,SE,6.9,-,N/A,,Scattered Clouds,130,2013-05-07 11:15:00
7:35 AM,64.6,57.6,78,29.92,10.0,SE,8.1,-,N/A,,Mostly Cloudy,140,2013-05-07 11:35:00
7:55 AM,64.8,59.4,83,29.93,10.0,SE,6.9,-,N/A,,Overcast,130,2013-05-07 11:55:00
8:15 AM,65.7,59.7,81,29.92,10.0,SE,9.2,-,N/A,,Overcast,140,2013-05-07 12:15:00
8:35 AM,66.6,60.3,80,29.93,10.0,SE,9.2,-,N/A,,Mostly Cloudy,140,2013-05-07 12:35:00
8:55 AM,67.6,61.0,79,29.93,10.0,SE,15.0,-,N/A,,Overcast,130,2013-05-07 12:55:00
9:15 AM,68.2,60.8,77,29.94,10.0,SE,12.7,-,N/A,,Scattered Clouds,130,2013-05-07 13:15:00
9:35 AM,68.4,61.0,77,29.95,10.0,ESE,16.1,-,N/A,,Clear,120,2013-05-07 13:35:00
9:55 AM,68.4,61.2,78,29.95,10.0,ESE,13.8,20.7,N/A,,Clear,120,2013-05-07 13:55:00
10:15 AM,67.8,60.6,78,29.95,10.0,SE,10.4,-,N/A,,Clear,130,2013-05-07 14:15:00
10:35 AM,70.9,62.6,75,29.94,10.0,SSE,6.9,-,N/A,,Clear,150,2013-05-07 14:35:00
10:55 AM,71.2,62.1,73,29.94,10.0,SSW,8.1,-,N/A,,Mostly Cloudy,200,2013-05-07 14:55:00
11:15 AM,69.8,62.2,77,29.94,10.0,South,8.1,-,N/A,,Mostly Cloudy,180,2013-05-07 15:15:00
11:35 AM,69.6,62.2,77,29.94,10.0,South,9.2,-,N/A,,Mostly Cloudy,190,2013-05-07 15:35:00
11:55 AM,70.3,62.6,76,29.93,10.0,South,9.2,-,N/A,,Scattered Clouds,180,2013-05-07 15:55:00
12:15 PM,72.7,63.0,71,29.93,10.0,SSE,8.1,-,N/A,,Scattered Clouds,160,2013-05-07 16:15:00
12:35 PM,73.6,62.2,68,29.93,10.0,South,10.4,-,N/A,,Scattered Clouds,180,2013-05-07 16:35:00
12:55 PM,73.6,60.8,64,29.93,10.0,South,11.5,-,N/A,,Scattered Clouds,190,2013-05-07 16:55:00
1:15 PM,74.8,59.9,60,29.93,10.0,South,11.5,-,N/A,,Scattered Clouds,180,2013-05-07 17:15:00
1:35 PM,75.0,59.2,58,29.93,10.0,South,10.4,-,N/A,,Mostly Cloudy,180,2013-05-07 17:35:00
1:55 PM,74.8,55.9,52,29.92,10.0,South,11.5,-,N/A,,Scattered Clouds,180,2013-05-07 17:55:00
2:15 PM,73.9,57.6,56,29.93,10.0,South,11.5,-,N/A,,Clear,170,2013-05-07 18:15:00
2:35 PM,74.1,57.4,56,29.92,10.0,South,12.7,-,N/A,,Clear,170,2013-05-07 18:35:00
2:55 PM,74.1,58.1,57,29.91,10.0,South,13.8,-,N/A,,Clear,170,2013-05-07 18:55:00
3:15 PM,74.3,56.8,54,29.90,10.0,South,12.7,-,N/A,,Clear,170,2013-05-07 19:15:00
3:35 PM,72.5,56.7,57,29.90,10.0,South,13.8,19.6,N/A,,Clear,170,2013-05-07 19:35:00
3:55 PM,71.2,57.0,61,29.90,10.0,South,15.0,19.6,N/A,,Clear,180,2013-05-07 19:55:00
4:15 PM,70.0,59.7,70,29.91,10.0,South,16.1,-,N/A,,Clear,180,2013-05-07 20:15:00
4:35 PM,71.4,59.9,67,29.91,10.0,South,13.8,-,N/A,,Scattered Clouds,180,2013-05-07 20:35:00
4:55 PM,70.7,59.4,67,29.92,10.0,South,12.7,20.7,N/A,,Clear,190,2013-05-07 20:55:00
5:15 PM,70.7,55.9,59,29.90,10.0,SSW,19.6,-,N/A,,Mostly Cloudy,210,2013-05-07 21:15:00
5:35 PM,68.4,57.2,67,29.93,10.0,SSW,17.3,-,N/A,,Overcast,200,2013-05-07 21:35:00
5:55 PM,66.4,56.1,69,29.92,10.0,SSW,17.3,-,N/A,Rain,Rain,200,2013-05-07 21:55:00
6:15 PM,65.3,57.2,75,29.93,10.0,SW,13.8,-,N/A,Rain,Light Rain,220,2013-05-07 22:15:00
6:35 PM,64.6,58.3,80,29.95,10.0,SW,13.8,-,N/A,,Light Drizzle,220,2013-05-07 22:35:00
6:55 PM,63.5,57.9,82,29.94,10.0,South,4.6,-,N/A,,Light Drizzle,180,2013-05-07 22:55:00
7:15 PM,62.6,58.1,85,29.94,10.0,SE,5.8,-,N/A,,Overcast,130,2013-05-07 23:15:00
7:35 PM,63.0,57.7,83,29.95,7.0,Calm,Calm,-,0.01,Rain,Light Rain,0,2013-05-07 23:35:00
7:55 PM,62.6,58.1,85,29.96,10.0,SSW,9.2,-,0.02,,Unknown,200,2013-05-07 23:55:00
8:15 PM,62.6,55.4,77,29.96,10.0,SSW,9.2,-,N/A,,Unknown,210,2013-05-08 00:15:00
8:35 PM,62.1,55.2,78,29.97,10.0,South,6.9,-,N/A,,Unknown,190,2013-05-08 00:35:00
8:55 PM,61.0,54.7,80,29.97,10.0,South,4.6,-,N/A,,Clear,180,2013-05-08 00:55:00
9:15 PM,61.0,55.2,81,29.98,10.0,SSE,4.6,-,N/A,,Clear,160,2013-05-08 01:15:00
9:35 PM,60.3,55.9,86,29.98,10.0,SSE,5.8,-,N/A,,Clear,150,2013-05-08 01:35:00
9:55 PM,60.6,56.8,87,29.98,10.0,South,5.8,-,N/A,,Clear,170,2013-05-08 01:55:00
10:15 PM,62.6,54.5,75,29.98,10.0,SSW,12.7,-,N/A,,Clear,200,2013-05-08 02:15:00
10:35 PM,62.6,55.6,78,29.99,10.0,South,9.2,-,N/A,,Clear,180,2013-05-08 02:35:00
10:55 PM,62.2,55.4,78,29.99,10.0,South,9.2,-,N/A,,Clear,190,2013-05-08 02:55:00
11:15 PM,62.4,55.6,78,29.98,10.0,South,10.4,-,N/A,,Clear,180,2013-05-08 03:15:00
11:35 PM,62.1,55.2,78,29.98,10.0,South,8.1,-,N/A,,Clear,180,2013-05-08 03:35:00
11:55 PM,62.8,55.2,76,29.99,10.0,SSW,10.4,-,N/A,,Clear,200,2013-05-08 03:55:00